Location: Martin
(32.0982°N, 93.2193°W)
Time: 14:48:34
(UTC+00:00)

Hubble Space Telescope - Visible Passes

Search period start: 20 September 2024 00:00
Search period end: 30 September 2024 00:00
Orbit: 505 x 509 km, 28.5° (Epoch: 19 September)

Date Brightness Start Highest point End Pass type
(mag) Time Alt. Az. Time Alt. Az. Time Alt. Az.
25 Sep 2.4 11:36:17 10° SW 11:39:32 25° SSE 11:42:47 10° ESE visible
26 Sep 2.2 11:15:12 10° SW 11:18:34 27° SSE 11:21:55 10° ESE visible
27 Sep 2.1 10:55:26 18° SSW 10:57:35 29° SSE 11:01:01 10° ESE visible
28 Sep 1.8 10:35:47 28° S 10:36:35 31° SSE 10:40:05 10° ESE visible
29 Sep 1.9 10:16:03 32° SSE 10:16:03 32° SSE 10:19:08 10° ESE visible
